Other Public Products
Issued by NWS Grand Forks, ND

Home | Current Version | Previous Version | Text Only | Print | Product List | Glossary Off
Versions: 1 2 3 4 5 6 7 8 9 10 11 12 13 14 15 16 17 18 19 20 21 22 23 24 25 26 27 28 29 30 31 32 33 34 35 36 37 38 39 40 41 42 43 44 45 46 47 48 49 50

000
FPUS83 KFGF 220310
OPUFGF
PRAIRIE TO PINES WEATHER ROUNDUP
NATIONAL WEATHER SERVICE EASTERN NORTH DAKOTA/GRAND FORKS ND
900 PM CST TUE FEB 21 2017

 **SATELLITE DATA USED TO AUGMENT SKY COVER AT AUTOMATED STATIONS**
 *****  WEATHER ACROSS EASTERN NORTH DAKOTA  *****

CITY           SKY/WX    TMP DP  RH WIND       PRES   REMARKS
GRAND FORKS    LGT RAIN  33  30  88 N6        29.69S VSB 1/2
GRAND FORKS AF FAIR      32  32 100 NE3       29.69F FOG
GRAND CITY NWS NOT AVBL
BUXTON         NOT AVBL
DEVILS LAKE    CLOUDY    34  32  92 CALM      29.66F
FARGO          FAIR      36  35  96 NE6       29.66F
WAHPETON ARPT    N/A     37  36  93 CALM      29.68S
$$

 *****  WEATHER ACROSS CENTRAL AND WESTERN NORTH DAKOTA  *****

CITY           SKY/WX    TMP DP  RH WIND       PRES   REMARKS
JAMESTOWN      CLOUDY    35  33  92 S5        29.68F
BISMARCK       LGT RAIN  39  37  92 VRB3      29.71R
MINOT          CLOUDY    34  32  92 NW9       29.65F
MINOT AFB      CLOUDY    32  30  93 N8        29.65F FOG     WCI  25
GARRISON         N/A     37  35  92 NE3       29.62F
WILLISTON      CLOUDY    35  31  85 N9        29.68R FOG
DICKINSON      MOCLDY    39  36  89 N9        29.63R
HETTINGER      FAIR      38  36  92 SE8       29.68F
$$

 *****  OTHER OBSERVATIONS NORTHEAST NORTH DAKOTA  *****

CITY           SKY/WX    TMP DP  RH WIND       PRES   REMARKS
WALHALLA       NOT AVBL
LANGDON        NOT AVBL
CAVALIER       FOG       32  32 100 N6        29.70F VSB 1/4
GRAFTON        FOG       30  30 100 CALM      29.71F VSB 1
CANDO          NOT AVBL
FORT TOTTEN      N/A     36  36 100 CALM      29.95S
ROLLA          FOG       28  28 100 N10       29.66S VSB 1   WCI  19
RUGBY            N/A     32  32 100 CALM      29.66S
 ***** THE ABOVE OBSERVATIONS ARE NON NWS ARE NOT QUALITY
        CONTROLLED AND MAY MIS-REPORT RAIN FOR SNOW...
$$

 *****  OTHER OBSERVATIONS SOUTHEAST NORTH DAKOTA *****

CITY           SKY/WX    TMP DP  RH WIND       PRES   REMARKS
COOPERSTOWN    CLOUDY    34  34 100 W3        29.68F
VALLEY CITY    CLOUDY    37  37 100 CALM      29.71R
OAKES          NOT AVBL
GWINNER        MOCLDY    43  39  87 N5        29.67F
SHEYENNE NWR     N/A     37  33  87 CALM      29.95S
BUFFALO        NOT AVBL
WYNDMERE       NOT AVBL
 ***** THE ABOVE OBSERVATIONS ARE NON NWS ARE NOT QUALITY
       CONTROLLED AND MAY MIS-REPORT RAIN FOR SNOW...
$$

  *****  WEATHER ACROSS NORTHERN MINNESOTA  *****

CITY           SKY/WX    TMP DP  RH WIND       PRES   REMARKS
FLAG ISLAND    CLOUDY    34  30  86 N7        29.69S
WARROAD        FAIR      32  28  86 CALM      29.69S
ROSEAU         FAIR      34  28  80 NW3       29.69S
HALLOCK        FAIR      34  32  93 CALM      29.69F FOG
THF RVR FALLS  FAIR      35  34  96 NW7       29.69F FOG
HALSTAD          N/A     37  36  94 CALM        N/A
FOSSTON        DRIZZLE   34  34 100 CALM      29.69F
BAUDETTE       FAIR      34  31  88 N3        29.67S
WASKISH        FAIR      36  34  93 CALM      29.67S
CROOKSTON      MIX PCPN  34  32  93 N6        29.71R
$$
  *****  WEATHER ACROSS CENTRAL AND WEST MINNESOTA  *****

CITY           SKY/WX    TMP DP  RH WIND       PRES   REMARKS
BEMIDJI        MOCLDY    38  36  91 CALM      29.68S
PARK RAPIDS    MOCLDY    40  35  83 NW5       29.67S
WADENA         FAIR      41  37  87 W5        29.68F
DETROIT LAKES  FAIR      39  36  87 CALM      29.68F
MOORHEAD       FAIR      39  37  93 N3        29.67F
FERGUS FALLS   FAIR      43  41  93 CALM      29.71F
ELBOW LAKE     FAIR      36  36  99 S5        29.68F
MORRIS MN      FAIR      45  43  93 CALM      29.67F
STAPLES        CLOUDY    41  39  93 CALM      29.68S
WHEATON        FAIR      39  37  93 E6        29.69F
$$
  *****  WEATHER ELSEWHERE ACROSS MINNESOTA  *****

CITY           SKY/WX    TMP DP  RH WIND       PRES   REMARKS
DULUTH         FAIR      37  34  89 CALM      29.65F
INTRNTL FALLS  FAIR      34  31  88 NW3       29.65S
ELY              N/A     36  32  87 CALM      29.65F
CLOQUET        FAIR      39  34  81 CALM      29.66S
BRAINERD       MOCLDY    42  38  85 W6        29.69R
HIBBING        MOCLDY    33  33 100 CALM      29.64F
ALEXANDRIA     FAIR      41  40  96 NW3       29.69F
SAINT CLOUD    FAIR      42  41  96 CALM      29.68S
MINNEAPOLIS    FAIR      53  44  71 S5        29.70S
$$

  *****  WEATHER ACROSS SOUTH DAKOTA  *****

CITY           SKY/WX    TMP DP  RH WIND       PRES   REMARKS
SIOUX FALLS    FAIR      42  37  82 CALM      29.68F
BROOKINGS      FAIR      45  39  79 SE6       29.67F
WATERTOWN      FAIR      41  38  89 S3        29.66F
HURON          FAIR      50  37  61 SE6       29.63S
SISSETON         N/A     39  37  92 VRB3      29.66F
ABERDEEN       FAIR      47  37  68 E7        29.63F
MITCHELL       FAIR      50  38  63 S10       29.64F
PIERRE         MOCLDY    48  37  65 NE8       29.60S
MOBRIDGE       FAIR      47  35  63 NE14      29.60R
RAPID CITY     FAIR      51  36  56 NW18      29.74R
$$

  *****  SOME WEATHER IN NEARBY STATES *****

CITY           SKY/WX    TMP DP  RH WIND       PRES   REMARKS
GLASGOW MT     CLOUDY    35  33  92 NE10      29.67F
GREAT FALLS MT FOG       35  34  96 E7        29.65S VSB 1/4
CHEYENNE WY    FAIR      45  17  32 SW9       29.92F
SCOTTSBLUFF NE FAIR      63  16  16 W21G28    29.80F
OMAHA NE       FAIR      52  37  56 S8        29.78F
DES MOINES IA  FAIR      51  33  50 S7        29.82F
DAVENPORT IA   FAIR      45  39  79 S8        29.87F
CHICAGO IL     MOCLDY    58  53  84 S9        29.88F
EAU CLAIRE WI  FAIR      50  38  63 S6        29.73S
LA CROSSE WI   FAIR      49  38  65 SE7       29.78S
$$

  *****  SOME NATIONAL WEATHER *****

CITY           SKY/WX    TMP DP  RH WIND       PRES   REMARKS
LA GUARDIA NY  MOCLDY    44  32  62 SW12      30.17F
RALEIGH NC     MOCLDY    53  39  59 SE6       30.14F
ATLANTA GA     CLOUDY    62  59  90 E7        29.96F
NEW ORLEANS LA FAIR      58  56  93 W3        29.87R
OKLAHOMA CITY  FAIR      57  37  47 N6        29.95S
ALBUQUERQUE NM FAIR      58  28  32 SW6       30.21R
SALT LAKE CITY RAIN      38  35  89 N10       30.10R
LOS ANGELES CA MOCLDY    62  56  80 NW10      30.24R
BOISE ID       CLOUDY    45  27  49 W15G31    30.01R
SEATTLE WA     CLOUDY    44  41  89 SE8       30.07R
$$

*** WEATHER ACROSS MANITOBA...SASKATCHEWAN AND ONTARIO ***
                ***ONTARIO***

CITY           SKY/WX    TMP DP  RH WIND       PRES   REMARKS
GERALDTON      PTCLDY    28  27  93 SW5       29.68S WCI  23
THUNDER BAY    MOCLDY    32  32 100 S3        29.68F
SIOUX LOOKOUT  CLOUDY    34  30  86 NW3       29.68R
TORONTO        MOCLDY    37  36  93 CALM      29.94F
BIG TROUT LK   LGT SNOW  27  25  93 W18G25    29.54R WCI  13
PICKLE LAKE    NOT AVBL
DRYDEN         CLOUDY    34  30  86 NW3       29.68R
KENORA         NOT AVBL
$$
                *** MANITOBA***

CITY           SKY/WX    TMP DP  RH WIND       PRES   REMARKS
BRANDON        FLURRIES  34  32  93 NE5       29.69F
DAUPHIN        CLOUDY    32  28  86 N2        29.73R
ISLAND LAKE    FLURRIES  27  25  93 SW7       29.61S WCI  19
PILOT MOUND      N/A     28  28 100 E5          N/A  WCI  23
THE PAS        CLOUDY    32  21  64 W12       29.68S WCI  23
THOMPSON       LGT SNOW  12   7  79 NW9       29.63R WCI   0
WINNIPEG       CLOUDY    32  32 100 CALM      29.71S
LYNN LAKE      FLURRIES   9   5  85 N7        29.66R WCI  -3
CHURCHILL      LGT SNOW   7   3  85 NE23G30   29.62R VSB 3/4 WCI -14
GILLAM         FLURRIES   5   1  85 W12       29.56R WCI -11
$$
                ***SASKATCHEWAN***

CITY           SKY/WX    TMP DP  RH WIND       PRES   REMARKS
ESTEVAN        FOG       32  32 100 NE6       29.68F VSB 1/8
KINDERSLEY     MOCLDY    27  23  86 SE7       29.76R WCI  19
LLOYDMINSTER   CLOUDY    32  28  86 SW6       29.73S
PRINCE ALBERT  CLOUDY    30  25  80 SW5       29.74R
REGINA         CLOUDY    32  27  80 N12       29.74S WCI  23
YORKTON        CLOUDY    32  27  80 NW8       29.73R WC


USA.gov is the U.S. government's official web portal to all federal, state and local government web resources and services.